[[{"header":{"parameterUnit":"m.s-1","parameterCategory":1,"la1":30.2991,"la2":30.254,"lo1":-89.0895,"lo2":-89.0444,"dy":0.0017,"dx":0.0017,"nx":28,"ny":28,"refTime":"2025-04-12T03:00:00:Z","depth":0,"parameterNumber":2,"parameterNumberName":"U-component_of_WINDS"},"data":[0,0,0,0,0,0,0,0,0,0,0,0,0,0,0,0,0,0,0,0,0,0,0,0,0,0,0,0,0,0,0,0,0,0,0,0,0,0,0,0,0,0,0,0,0,0,0,0,0,0,0,0,0,0,0,0,0,0,1.509,1.5091,0,1.5188,1.5189,1.519,1.5234,1.5234,1.5234,1.5234,1.5336,1.5339,1.5341,0,0,0,0,0,0,0,0,0,0,0,0,0,1.4945,1.4947,1.509,1.5091,1.5093,1.5188,1.5189,1.519,1.5234,1.5234,1.5234,1.5234,1.5335,1.5338,1.5342,0,0,0,0,0,0,0,0,0,0,0,0,0,1.5022,1.4948,1.509,1.5126,1.513,1.5187,1.5189,1.5191,1.5234,1.5234,1.5234,1.5234,1.5334,1.5338,1.5342,1.5372,0,0,1.5355,1.5357,0,0,0,0,0,0,0,0,1.5017,1.5027,1.5119,1.5124,1.5128,1.5199,1.5175,1.5251,1.5234,1.5195,1.5234,1.5234,1.529,1.5298,1.5317,1.5376,1.5381,1.5355,1.5358,1.536,1.5361,0,0,0,0,0,0,0,1.5012,1.5023,1.5129,1.5121,1.5126,1.5138,1.5149,1.519,1.5242,1.5198,1.5202,1.5213,1.5293,1.5313,1.532,1.5382,1.5355,1.5359,1.5362,1.5363,1.5473,1.5473,0,0,0,0,0,0,1.5,1.5018,1.5126,1.5132,1.5071,1.5141,1.5153,1.5176,1.5242,1.5252,1.5213,1.5214,1.5306,1.5315,1.5323,1.5363,1.536,1.5364,1.5366,1.5472,1.5473,1.5473,0,0,0,0,0,0,1.4997,1.5009,1.5122,1.5076,1.5091,1.5144,1.517,1.5178,1.5198,1.5253,1.5263,1.5223,1.5306,1.5318,1.536,1.5367,1.5366,1.5369,1.5472,1.5473,1.5473,1.5442,0,0,0,0,0,0,1.4993,1.5008,1.5019,1.5076,1.5093,1.5155,1.517,1.518,1.5205,1.5208,1.5265,1.5275,1.5307,1.5353,1.5364,1.5373,1.5373,1.5471,1.5472,1.5473,1.5443,1.5442,1.5441,0,0,0,0,0,1.4987,1.5006,1.5019,1.5032,1.5108,1.5156,1.5166,1.5202,1.5206,1.5218,1.5253,1.5273,1.5365,1.5357,1.5369,1.538,1.5471,1.5472,1.5473,1.5443,1.5442,1.5441,0,0,0,0,0,0,1.4949,1.5014,1.5029,1.5067,1.5105,1.5163,1.5179,1.5199,1.5237,1.5238,1.5282,1.5295,1.5333,1.5361,1.5351,1.5413,1.542,1.5423,1.5393,1.5392,1.5391,1.5384,1.5376,0,0,0,0,0,1.4945,1.4977,1.5033,1.5061,1.508,1.5126,1.5148,1.5172,1.5214,1.523,1.5269,1.5309,1.5348,1.5372,1.541,1.5448,1.5461,1.5461,1.546,1.5459,1.5461,1.5485,1.5486,1.5476,1.5476,1.5476,0,0,1.4937,1.4977,1.4994,1.5055,1.5087,1.5121,1.5139,1.5173,1.5199,1.5236,1.5278,1.5308,1.5356,1.5396,1.5416,1.5421,1.5467,1.546,1.5459,1.5462,1.5486,1.5487,1.5488,1.5477,1.5476,1.5476,0,0,1.4939,1.4972,1.5,1.5032,1.5081,1.5112,1.5119,1.5174,1.5195,1.5238,1.5266,1.5298,1.5363,1.5396,1.5421,1.5439,1.5459,1.545,1.5444,1.5467,1.5468,1.5468,1.5475,1.5477,1.5452,1.5452,1.5452,0,1.4923,1.4974,1.5012,1.5045,1.5071,1.5106,1.5135,1.5165,1.5224,1.5242,1.5246,1.5329,1.5364,1.5413,1.5417,1.5436,1.5446,1.5443,1.5464,1.5466,1.5467,1.5474,1.5476,1.5451,1.5451,1.5451,1.5451,0,1.4952,1.4987,1.5004,1.506,1.5088,1.5119,1.5162,1.5187,1.5209,1.524,1.5284,1.5327,1.5375,1.5389,1.5411,1.5442,1.5444,1.5456,1.5463,1.5466,1.5473,1.5476,1.5449,1.5449,1.545,1.545,0,0,1.4932,1.5009,1.5015,1.5041,1.5099,1.5127,1.516,1.5207,1.5227,1.5268,1.5297,1.5352,1.5364,1.5393,1.5419,1.5439,1.5451,1.5449,1.5451,1.5448,1.5489,1.5479,1.5481,1.5465,1.5466,1.5466,1.5485,0,1.4942,1.5002,1.5038,1.5084,1.5118,1.5152,1.5182,1.5221,1.5251,1.5285,1.5319,1.5357,1.5369,1.5387,1.5408,1.5445,1.546,1.5444,1.5494,1.5495,1.548,1.5485,1.5475,1.549,1.5488,1.5488,1.5489,0,1.4962,1.5001,1.505,1.5105,1.5121,1.5146,1.5193,1.5224,1.527,1.5291,1.5324,1.5351,1.5389,1.5394,1.5447,1.5436,1.5459,1.548,1.5482,1.5488,1.5492,1.5491,1.5496,1.5498,1.5493,1.5493,1.5493,0,1.4942,1.5008,1.5046,1.5068,1.5133,1.515,1.5178,1.5224,1.525,1.5291,1.5309,1.5354,1.5379,1.5414,1.5453,1.5453,1.5503,1.5511,1.5522,1.5521,1.553,1.5529,1.5539,1.5545,1.5545,1.5545,1.5545,0,1.495,1.4979,1.5038,1.5062,1.5096,1.5138,1.5171,1.5202,1.5242,1.5273,1.5307,1.5335,1.5385,1.542,1.5452,1.5492,1.5503,1.5521,1.5529,1.5518,1.5516,1.5533,1.5533,1.5546,1.5546,1.5545,1.5545,0,1.4934,1.4975,1.5019,1.5077,1.5093,1.5115,1.5166,1.5191,1.5223,1.5262,1.5274,1.5325,1.5369,1.5411,1.547,1.5491,1.5531,1.5541,1.5515,1.5519,1.5528,1.5527,1.5549,1.5555,1.5557,1.5557,1.5557,0,1.4936,1.4959,1.502,1.5043,1.507,1.5107,1.5134,1.5177,1.5204,1.5259,1.5278,1.5323,1.5362,1.543,1.5473,1.5519,1.5531,1.5536,1.5538,1.5526,1.5531,1.5529,1.5532,1.5534,1.5534,1.5534,1.5534,0,1.4935,1.4955,1.4992,1.5037,1.5069,1.5106,1.5145,1.5162,1.5213,1.5242,1.5287,1.5317,1.5377,1.5423,1.5473,1.5504,1.5527,1.5533,1.5538,1.5527,1.5511,1.552,1.5512,1.5532,1.5532,1.5532,1.5532,1.5532,1.4928,1.4951,1.4998,1.5039,1.5073,1.5109,1.5135,1.5172,1.5209,1.5261,1.5285,1.533,1.5377,1.5448,1.5478,1.5515,1.5521,1.5528,1.553,1.5531,1.5528,1.5505,1.5524,1.5524,1.5524,1.5524,1.5524,0,1.493,1.4962,1.5,1.5053,1.5086,1.5105,1.515,1.5176,1.5216,1.5257,1.5295,1.5347,1.5392,1.5439,1.5487,1.5508,1.552,1.5519,1.5518,1.5524,1.552,1.5511,1.5508,1.5508,1.5508,1.5508,1.5508,1.5508,1.4934,1.4974,1.4999,1.5057,1.5089,1.5133,1.5157,1.5191,1.5225,1.5281,1.5319,1.5349,1.5394,1.5445,1.5488,1.5501,1.5517,1.5513,1.5529,1.5524,1.5525,1.5526,1.5517,1.5516,1.5516,1.553,1.553,1.553]},{"header":{"parameterUnit":"m.s-1","parameterCategory":1,"la1":30.2991,"la2":30.254,"lo1":-89.0895,"lo2":-89.0444,"dy":0.0017,"dx":0.0017,"nx":28,"ny":28,"refTime":"2025-04-12T03:00:00:Z","depth":0,"parameterNumber":3,"parameterNumberName":"V-component_of_WINDS"},"data":[0,0,0,0,0,0,0,0,0,0,0,0,0,0,0,0,0,0,0,0,0,0,0,0,0,0,0,0,0,0,0,0,0,0,0,0,0,0,0,0,0,0,0,0,0,0,0,0,0,0,0,0,0,0,0,0,0,0,-2.5049,-2.5049,0,-2.5057,-2.5057,-2.5057,-2.5114,-2.5115,-2.5117,-2.5118,-2.5122,-2.5121,-2.512,0,0,0,0,0,0,0,0,0,0,0,0,0,-2.508,-2.5079,-2.5049,-2.5049,-2.5049,-2.5057,-2.5057,-2.5057,-2.5114,-2.5116,-2.5117,-2.5119,-2.5122,-2.5121,-2.512,0,0,0,0,0,0,0,0,0,0,0,0,0,-2.5075,-2.5079,-2.5049,-2.5078,-2.5081,-2.5057,-2.5057,-2.5057,-2.5113,-2.5116,-2.5118,-2.512,-2.5123,-2.5121,-2.5119,-2.5066,0,0,-2.5114,-2.5113,0,0,0,0,0,0,0,0,-2.5075,-2.5074,-2.5074,-2.5076,-2.5079,-2.5087,-2.507,-2.506,-2.5113,-2.5101,-2.5118,-2.5121,-2.5108,-2.5108,-2.5105,-2.5066,-2.5066,-2.5114,-2.5113,-2.5112,-2.5111,0,0,0,0,0,0,0,-2.5076,-2.5074,-2.5052,-2.5074,-2.5077,-2.5091,-2.5092,-2.5068,-2.5092,-2.5102,-2.5106,-2.5107,-2.511,-2.5106,-2.5105,-2.5066,-2.5114,-2.5112,-2.5111,-2.511,-2.4989,-2.4987,0,0,0,0,0,0,-2.5072,-2.5074,-2.5052,-2.5052,-2.5083,-2.5088,-2.509,-2.5082,-2.5093,-2.5097,-2.5105,-2.5109,-2.5108,-2.5107,-2.5105,-2.5047,-2.5112,-2.511,-2.5109,-2.4991,-2.4988,-2.4986,0,0,0,0,0,0,-2.5073,-2.507,-2.5051,-2.5064,-2.5063,-2.5086,-2.5076,-2.5081,-2.5077,-2.5095,-2.51,-2.5097,-2.511,-2.5108,-2.5077,-2.5047,-2.5109,-2.5108,-2.4993,-2.499,-2.4987,-2.4926,0,0,0,0,0,0,-2.5073,-2.5069,-2.505,-2.5063,-2.5062,-2.5022,-2.5074,-2.508,-2.5075,-2.508,-2.5088,-2.5092,-2.5111,-2.5079,-2.5075,-2.5046,-2.5106,-2.4996,-2.4992,-2.4988,-2.4931,-2.4922,-2.4913,0,0,0,0,0,-2.5074,-2.503,-2.5048,-2.5045,-2.5038,-2.5021,-2.502,-2.5045,-2.5072,-2.5052,-2.5065,-2.5091,-2.5051,-2.5075,-2.5071,-2.5041,-2.4998,-2.4993,-2.4988,-2.4935,-2.4923,-2.4914,0,0,0,0,0,0,-2.501,-2.5032,-2.5053,-2.5012,-2.5014,-2.503,-2.5006,-2.5031,-2.5024,-2.5029,-2.5059,-2.5061,-2.5025,-2.503,-2.5056,-2.4992,-2.503,-2.5024,-2.4991,-2.498,-2.4971,-2.4971,-2.5105,0,0,0,0,0,-2.4991,-2.4977,-2.4997,-2.4959,-2.4959,-2.4982,-2.4976,-2.4995,-2.4998,-2.4999,-2.5008,-2.5009,-2.4998,-2.4988,-2.4978,-2.4932,-2.4936,-2.491,-2.4901,-2.4893,-2.4888,-2.4868,-2.4857,-2.497,-2.497,-2.497,0,0,-2.4952,-2.4963,-2.4951,-2.4946,-2.495,-2.4935,-2.4983,-2.4963,-2.4952,-2.4995,-2.4968,-2.4975,-2.4978,-2.494,-2.4924,-2.4943,-2.4858,-2.4887,-2.4881,-2.488,-2.4862,-2.4851,-2.4841,-2.4967,-2.4967,-2.4968,0,0,-2.4873,-2.4879,-2.485,-2.4854,-2.4861,-2.4877,-2.487,-2.4883,-2.4891,-2.4864,-2.4898,-2.4884,-2.4861,-2.4864,-2.4862,-2.4788,-2.4813,-2.4783,-2.4737,-2.4716,-2.4707,-2.47,-2.4676,-2.4666,-2.4778,-2.4777,-2.4777,0,-2.4823,-2.4802,-2.4831,-2.4811,-2.4809,-2.485,-2.4822,-2.4824,-2.4825,-2.4823,-2.4845,-2.4821,-2.4825,-2.479,-2.4773,-2.4769,-2.4763,-2.4782,-2.4706,-2.4699,-2.4692,-2.467,-2.466,-2.4774,-2.4774,-2.4775,-2.4775,0,-2.4741,-2.4726,-2.4701,-2.4706,-2.4701,-2.4676,-2.4702,-2.4693,-2.4714,-2.4728,-2.4701,-2.4709,-2.4703,-2.4696,-2.4714,-2.4664,-2.4676,-2.4701,-2.474,-2.4678,-2.4657,-2.4648,-2.4769,-2.477,-2.4771,-2.4772,0,0,-2.462,-2.4644,-2.4635,-2.4639,-2.4651,-2.464,-2.4617,-2.4614,-2.4607,-2.4607,-2.459,-2.4573,-2.4598,-2.4596,-2.4615,-2.4596,-2.4541,-2.4625,-2.4626,-2.4611,-2.4489,-2.4471,-2.4461,-2.4558,-2.4556,-2.4555,-2.449,0,-2.4546,-2.4512,-2.4539,-2.4499,-2.4487,-2.4528,-2.4509,-2.4515,-2.4528,-2.4519,-2.4533,-2.4521,-2.4554,-2.4554,-2.4537,-2.4551,-2.4517,-2.4556,-2.4543,-2.4542,-2.4543,-2.445,-2.443,-2.4368,-2.4482,-2.448,-2.4479,0,-2.4455,-2.4455,-2.4415,-2.4434,-2.443,-2.4412,-2.4413,-2.4404,-2.4411,-2.4422,-2.4422,-2.4447,-2.4427,-2.4465,-2.4439,-2.4465,-2.4461,-2.4468,-2.4466,-2.4466,-2.4508,-2.4449,-2.4348,-2.434,-2.4467,-2.4468,-2.4469,0,-2.4374,-2.4364,-2.434,-2.4341,-2.4361,-2.4349,-2.4357,-2.4367,-2.4364,-2.4364,-2.4363,-2.4359,-2.4358,-2.4355,-2.4379,-2.4403,-2.435,-2.4389,-2.436,-2.4359,-2.4347,-2.4348,-2.4246,-2.4342,-2.4342,-2.4342,-2.4343,0,-2.4289,-2.4264,-2.4304,-2.4289,-2.4262,-2.4295,-2.4267,-2.4278,-2.4288,-2.4276,-2.431,-2.4298,-2.433,-2.4322,-2.434,-2.4318,-2.4316,-2.4325,-2.433,-2.4323,-2.4322,-2.4321,-2.4327,-2.434,-2.4341,-2.4341,-2.4341,0,-2.4194,-2.422,-2.4197,-2.4219,-2.4224,-2.4204,-2.4223,-2.421,-2.4227,-2.4212,-2.421,-2.4236,-2.4228,-2.4253,-2.4247,-2.426,-2.4228,-2.4239,-2.4226,-2.423,-2.42,-2.4204,-2.4096,-2.4084,-2.4186,-2.4185,-2.4184,0,-2.4139,-2.4121,-2.4143,-2.4139,-2.4146,-2.4138,-2.4136,-2.4168,-2.4165,-2.4174,-2.4161,-2.4157,-2.4155,-2.4141,-2.4159,-2.4156,-2.4169,-2.4131,-2.4168,-2.4162,-2.4171,-2.4172,-2.4172,-2.4123,-2.4122,-2.4121,-2.412,0,-2.404,-2.4055,-2.4052,-2.4055,-2.4053,-2.4055,-2.406,-2.4055,-2.4089,-2.4084,-2.4078,-2.4077,-2.4074,-2.407,-2.4072,-2.4079,-2.4106,-2.4109,-2.4102,-2.4095,-2.4089,-2.4094,-2.4207,-2.4111,-2.4112,-2.4113,-2.4113,-2.4113,-2.3965,-2.3952,-2.3967,-2.3963,-2.3972,-2.3976,-2.3967,-2.3984,-2.398,-2.3982,-2.4001,-2.3992,-2.4003,-2.4008,-2.4014,-2.4007,-2.4025,-2.4014,-2.4012,-2.401,-2.4006,-2.4089,-2.4007,-2.4007,-2.4008,-2.4008,-2.4008,0,-2.3869,-2.3882,-2.3879,-2.3887,-2.3885,-2.3912,-2.392,-2.3916,-2.3909,-2.3918,-2.3917,-2.3911,-2.3908,-2.3927,-2.3927,-2.3918,-2.3931,-2.3917,-2.3919,-2.3921,-2.3989,-2.3996,-2.3908,-2.3908,-2.3908,-2.3908,-2.3908,-2.3908,-2.382,-2.3801,-2.3818,-2.3804,-2.3816,-2.381,-2.3812,-2.3818,-2.3825,-2.3819,-2.3818,-2.3831,-2.3844,-2.3846,-2.3845,-2.3851,-2.385,-2.3833,-2.3842,-2.3906,-2.3916,-2.3925,-2.3932,-2.3832,-2.3831,-2.3776,-2.3775,-2.3775]}]]